STARLINK-1819 (46670 NORAD) Tracking and Keplerian Element Data

This shows tracking and keplerian element data for the satellite.

Feedback or suggestion? Click here.




ElementValue
Catalog46670
NameSTARLINK-1819
Epoch Orbit226
Epoch Day298.85060006
Epoch Year2020
RAAN77.8706
Inclination53.0515
Eccentricity0.0011864
Argument of Perigee337.4012
Mean Anonmoly22.6738
Mean Motion16.28223676
Decay Rate0.10787455
L11 46670U 20073A 20298.85060006 .10787455 12210-4 26642-2 0 9990
L22 46670 53.0515 77.8706 0011864 337.4012 22.6738 16.28223676 2260

Live tracking and technical data element details for STARLINK-1819 (NORAD 46670). STARLINK-1819 can be tracked NOW for your location showing map with azimuth and elevation plus other details from your city location.

Track the satellite on the map from your city or location and see movement details for azimuth, elevation, latitude, longitude, range, height, and movement on the map or in text.







IsCatalogInMostPopularTable: catalog: 46670, numindb: 34
Update: records affected: 1



GetName: 46670 STARLINK-1819

Hit Count: updated at: Fri, 22 Jan 2021 16:57:03 GMT